Regional Weather Roundup
Issued by NWS Wakefield, VA

Home | Current Version | Previous Version | Text Only | Print | Product List | Glossary On
Versions: 1 2 3 4 5 6 7 8 9 10 11 12 13 14 15 16 17 18 19 20 21 22 23 24 25 26 27
000
ASUS41 KAKQ 312315
RWRAKQ

REGIONAL WEATHER ROUNDUP
NATIONAL WEATHER SERVICE WAKEFIELD VA
700 PM EDT WED AUG 31 2016

Note: "fair" indicates few or no clouds below 12,000 feet with no
significant weather and/or obstructions to visibility. * = Denotes
station may not report precipitation (e.g., rain,snow,etc.),
thunder or fog.

VAZ042-051-052>054-056-010000-
NORTHERN VIRGINIA

CITY           SKY/WX    TMP DP  RH WIND       PRES   REMARKS
WASH NATIONAL  MOCLDY    87  70  56 S9        29.86S
DULLES         PTCLDY    86  67  52 S8        29.86S
FORT BELVOIR   CLEAR     85  69  58 SE6       29.86S
QUANTICO       PTCLDY    87  73  62 S12       29.86S
FREDERICKSBRG* CLEAR     86  72  62 S6        29.86R
STAFFORD*      CLEAR     84  69  60 S3        29.91R
WARRENTON      PTCLDY    87  66  48 S7        29.87R
CULPEPER*      CLOUDY    79  70  75 S9G17     29.89R
MANASSAS*      PTCLDY    84  70  61 S6        29.86S
LEESBURG*      CLEAR     90  68  48 CALM      29.87S
WINCHESTER     CLEAR     86  64  48 S3        29.88R
FRONT ROYAL*   FAIR      86  72  62 CALM      29.87R
LURAY*         FAIR      88  64  45 CALM      29.89R
$$

VAZ048-049-060>072-079>083-010000-
CENTRAL AND SOUTH CENTRAL VIRGINIA

CITY           SKY/WX    TMP DP  RH WIND       PRES   REMARKS
RICHMOND       MOCLDY    84  69  60 S8        29.88S
CHESTERFIELD*  FAIR      86  63  45 E3        29.89F
PETERSBURG*    MOCLDY    86  67  53 CALM      29.90R
HANOVER        CLOUDY    85  67  54 VRB5      29.89S
TAPPAHANNOCK*  CLOUDY    86  69  56 SE8       29.89S
QUINTON*       CLOUDY    85  70  59 CALM      29.88S
CHARLOTTSVILLE LGT RAIN  83  70  64 VRB5      29.90R
GORDONSVILLE*  FAIR      82  73  74 CALM      29.88R
ORANGE*          N/A     82  72  69 NW7       29.90R
LOUISA*        CLEAR     84  77  79 CALM      29.87S
BUMPASS*       FAIR      83  74  73 CALM      29.88R
FARMVILLE*     CLEAR     85  69  56 S10       29.88R
CREWE*         FAIR      86  71  59 S6        29.89R
FORT PICKETT*  CLOUDY    85  69  60 SW6       29.89S
CHASE CITY*    MOCLDY    88  66  49 SE8       29.89S
CLARKSVILLE*   FAIR      88  68  51 S5        29.89S
SOUTH HILL*    CLOUDY    85  70  61 S9        29.96S
LAWRENCEVILLE* FAIR      86  69  57 SE3       29.90S
EMPORIA*       CLOUDY    86  68  54 SE5       29.92R
$$

VAZ088>098-010000-
SOUTHEAST VIRGINIA

CITY           SKY/WX    TMP DP  RH WIND       PRES   REMARKS
NORFOLK        CLOUDY    82  69  64 SE7       29.91S
VIRGINIA BEACH CLOUDY    79  69  71 E6        29.90F
NORFOLK NAVAL  CLOUDY    83  66  56 SE6       29.91F
WEST POINT*    CLOUDY    83  68  59 SE6       29.90R
SALUDA*        FAIR      82  71  67 S9        29.89S
NEWPORT NEWS   CLOUDY    82  68  62 SE9       29.90S
LANGLEY AFB    PTCLDY    82  71  68 SE8       29.90S
FORT EUSTIS    PTCLDY    85  69  59 SE10      29.88R
WILLIAMSBURG*  CLOUDY    88  72  58 SE6       29.90S
HR EXEC AP*    FAIR      82  68  61 SE7       29.92F
FRANKLIN*      MOCLDY    85  69  59 SE3       29.90F
US460-WAKEFLD  CLOUDY    86  69  56 S3        29.89S
$$

VAZ020-022-025-037-045-010000-
WEST CENTRAL AND SOUTHWEST VIRGINIA

CITY           SKY/WX    TMP DP  RH WIND       PRES   REMARKS
STAUNTON*      CLOUDY    77  70  78 SW3       29.94S
WAYNESBORO*    MOCLDY    77  69  76 CALM      29.94F
HOT SPRINGS VA CLEAR     76  60  58 W3        30.07S
LYNCHBURG      PTCLDY    80  70  71 CALM      29.93R
DANVILLE       MOCLDY    83  70  64 S5        29.90R
SOUTH BOSTON*  FAIR      88  65  46 S6        29.89S
MARTINSVILLE   PTCLDY    85  74  70 CALM      29.94F
ROANOKE        CLOUDY    76  71  85 SE5       29.95S
BLACKSBURG     PTCLDY    81  69  67 SE5       30.01S
DUBLIN*        PTCLDY    82  69  65 SW5       30.00S
MARION*        TSTM      71  68  92 CALM      30.05R
HILLSVILLE*    CLOUDY    77  68  74 S3        30.02S
RICHLANDS*     FAIR      78  68  72 CALM      30.03S
WISE*          SUNNY     81  57  44 NW3       30.04S
ABINGDON*      SUNNY     85  65  51 N7        29.98S
$$

MDZ021>025-VAZ099-100-010000-
SOUTHERN MARYLAND AND THE DELMARVA PENINSULA

CITY           SKY/WX    TMP DP  RH WIND       PRES   REMARKS
PATUXENT RIVER PTCLDY    83  67  58 S8        29.87F
BAY BRIDGE APT CLEAR     86  70  58 MISG      29.86S
LEONARDTOWN    CLEAR     81  68  65 SE6       29.90R
DOVER          CLEAR     82  68  64 SE8       29.87R
GEORGETOWN     CLEAR     81  67  62 S10       29.89F
EASTON           N/A     90  72  55 SW7       29.91  HX  96
CAMBRIDGE      CLEAR     82  64  54 S3        29.87S
SALISBURY      PTCLDY    81  68  64 SE5       29.89S
OCEAN CITY     CLEAR     81  69  67 VRB5      29.90F
WALLOPS ISLAND CLOUDY    80  71  74 S9        29.90F
ACCOMACK*      PTCLDY    80  68  67 SE6       29.90S
$$

NCZ012>017-030>032-010000-
NORTH CENTRAL AND EASTERN NORTH CAROLINA

CITY           SKY/WX    TMP DP  RH WIND       PRES   REMARKS
ROANOKE RAPIDS FAIR      82  68  61 CALM      29.91S
RALEIGH        MOCLDY    85  68  56 S7        29.92R THUNDER
ELIZABETH CITY CLOUDY    81  70  69 SE6       29.93S
AHOSKIE*       CLOUDY    83  71  67 S5        29.91S
EDENTON*       CLOUDY    84  72  68 E8        29.92S
CURRITUCK*       N/A     80  72  76 CALM      29.93S
KILL DEVIL HLS CLOUDY    81  75  83 CALM      29.92S
MANTEO         CLOUDY    79  73  82 CALM      29.93S
CAPE HATTERAS  CLOUDY    81  75  82 E3        29.93F
TARBORO*       FAIR      84  72  65 S8        29.92S
GOLDSBORO      CLOUDY    84  75  72 SE7       29.91S
WASHINGTON     CLOUDY    82  72  72 S3        29.93R
GREENVILLE     CLOUDY    82  73  74 S8        29.94S
NEW BERN       CLOUDY    80  75  84 S6        29.94S
WILMINGTON     CLOUDY    78  71  79 SE3       29.93F
$$

VAZ048-010000-
ELSEWHERE

CITY           SKY/WX    TMP DP  RH WIND       PRES   REMARKS
HARRISBURG PA  LGT RAIN  78  74  87 CALM      29.88R
BALTIMORE      PTCLDY    83  70  64 S3        29.86S
ANNAPOLIS      CLEAR     84  71  65 S10       29.86S
ANDREWS AFB    CLEAR     85  69  58 S9        29.86S
PHILADELPHIA   CLOUDY    87  64  46 SW13      29.87R
HENDERSON NC   CLEAR     83  66  55 S5        29.91S
GREENSBORO     MOCLDY    86  68  54 S9        29.92R
ROCKY MOUNT    CLOUDY    85  72  65 S8        29.91S
$$

VAZ100-010000-
MARINE

STATION/POSITION TIME  TEMP    WIND        PRES    WAVE   SWELL
                       AIR SEA DIR/SP/G            HT/PER HT/PER
                 (UTC) (F)     (DEG/KT/KT) (MB)    (FT/S) (FT/S)
BRANDYWINE LGT   2200   78                   N/A
CAPE MAY NJ      2200   79 79                N/A
LEWES DE         2200   80 78                N/A
OCEAN-CITY-INLET 2200   81 80                N/A
WACHAPREAGUE VA  2200   81 86                N/A
THOMAS POINT MD  2300   84 83  180/ 15/ 16 1012.3F
GOOSES REEF MD   2300   84 83  170/ 14/ 16 1011.8F   1/ 3
COVE POINT MD    2200   83                   N/A
SOLOMONS ISLAND  2200   84 86                N/A
BISHOPS HEAD MD  2200   84 87                N/A
PINEY POINT MD   2224          170/ 12/ 15   N/A
POTOMAC MD       2300   84 84  190/ 12/ 16 1010.9R   1/ 3
CAMBRIDGE MD     2200   87 84                N/A
LEWISETTA VA     2200   84 85                N/A
RAPPAHANNOCK LGT 2200                      1013.1F
STINGRAY PT      2300   83 84  110/ 14/ 16 1012.6F   1/ 2
YORK RVR RNG VA  2200   81                   N/A
YORKTOWN VA      2200   83                   N/A
JAMESTOWN VA     2300   85 87  140/ 10/ 14   N/A     1
DOMINION TERM VA 2200   84                   N/A
KIPTOPEKE VA     2200      83                N/A
CHES BAY BRIDGE  2200   81 82                N/A
CAPE HENRY VA    2200   80                   N/A
WILLOUBY STN VA  2200   82                   N/A
CAPE HENRY BUOY  2212      81                N/A     3/11   2/11
1ST LANDING BUOY 2300   80 82  170/ 12/ 14 1012.3F   2/ 4
CAPE CHARLES BUO 2226      80                N/A     3/11   2/11
OFFSHORE WE BUOY 2221      81                N/A     3/13   2/13
64NM E OF VA BCH 2250   80 81   40/  4/  6 1012.7S   3/11   3/11
DUCK PIER NC     2200   81 80                N/A
44056 DUCK FRF   2211      80                N/A     3/11   2/11
OREGON INLET NC  2200   80 81                N/A
HATTERAS NC      2200   82 83                N/A
DIAMOND SHLS NC  2250   81 85   CALM  /  2 1013.3F   3/10   3/10
CAPE LOOKOUT NC  2300   78     260/  3/  4 1013.3F
$$




USA.gov is the U.S. government's official web portal to all federal, state and local government web resources and services.